Regional Weather Roundup
Issued by NWS Albany, NY

Home | Current Version | Previous Version | Text Only | Print | Product List | Glossary On
Versions: 1 2 3 4 5 6 7 8 9 10 11 12 13 14 15 16 17 18 19 20 21 22 23 24 25 26 27 28 29 30 31 32 33 34 35 36 37 38 39 40 41 42 43 44 45 46 47 48 49 50
000
ASUS41 KALY 290410
RWRALY

NEW YORK STATE HOURLY WEATHER ROUNDUP
NATIONAL WEATHER SERVICE ALBANY NY
1200 AM EDT FRI AUG 29 2014

NOTE: "FAIR" INDICATES FEW OR NO CLOUDS BELOW 12,000 FEET WITH NO
SIGNIFICANT WEATHER AND/OR NO OBSTRUCTIONS TO VISIBILITY.

NYZ032-033-038>043-046>054-057>066-NYZ062>081-290500-
EAST


CITY           SKY/WX    TMP DP  RH WIND       PRES   REMARKS
ALBANY         MOCLDY    60  51  72 N6        30.07R
GLENS FALLS    MOCLDY    61  50  67 N5        30.06R
POUGHKEEPSIE   CLEAR     57  52  83 CALM      30.06R
NEWBURGH       CLEAR     61  52  72 W5        30.07
MONTGOMERY     CLEAR     55  49  80 CALM      30.08R
WHITE PLAINS   CLEAR     62  50  64 NW10      30.05R
ISLIP          CLEAR     67  51  56 NW12      30.03R
NEW YORK CITY  PTCLDY    68  50  52 N8        30.05R
CENTRAL PARK   CLEAR     67  46  47 VRB3      30.09R
$$

NYZ005>009-017-018-044>046-055-056-290500-
CENTRAL


CITY           SKY/WX    TMP DP  RH WIND       PRES   REMARKS
FULTON         MOCLDY    59  51  75 CALM      30.12S
SYRACUSE       CLOUDY    62  55  77 NW5       30.12R
ROME           CLEAR     56  53  90 CALM      30.13R
ELMIRA         CLEAR     50  49  96 W5        30.14S
BINGHAMTON     CLEAR     56  49  77 NW7       30.13S
MONTICELLO     CLEAR     54  48  82 NW6       30.13R
$$

NYZ026>034-041>043-290500-
NORTH


CITY           SKY/WX    TMP DP  RH WIND       PRES   REMARKS
WATERTOWN      CLEAR     50  46  86 CALM      30.11S
FORT DRUM      NOT AVBL
MASSENA        CLEAR     55  53  93 W5        30.09R
SARANAC LAKE   MOCLDY    53  49  86 NW3       30.09R
PLATTSBURGH    CLEAR     59  51  75 NW5       30.05R
$$

NYZ001>004-010>016-019>021-290500-
WEST


CITY           SKY/WX    TMP DP  RH WIND       PRES   REMARKS
NIAGARA FALLS  CLEAR     55  49  80 CALM      30.14S
BUFFALO        PTCLDY    57  48  72 S5        30.15S
DUNKIRK        MOCLDY    60  53  77 S7        30.15R
JAMESTOWN      CLEAR     54  48  82 CALM      30.18R
WELLSVILLE     CLEAR     51  45  79 CALM      30.19R
ROCHESTER      MOCLDY    55  51  86 SW5       30.14R
PENN YAN       CLEAR     56  52  86 SW6       30.14S
$$

             KEY
       WCI = WIND CHILL INDEX
       VSB = VISIBILITY
       HX  = HEAT INDEX
$$



USA.gov is the U.S. government's official web portal to all federal, state and local government web resources and services.